sat.trackr.live / text

‹ back to catalog

STARLINK-6360

NORAD 57235 · 2023-094T

PAYLOAD ACTIVE UNKNOWN

§ Identity

Operator
Country
US
Launch date
2023-07-07
Launch site
AFWTR
Launch vehicle
Mass (kg)
RCS (m²)

Purposes: comms

External: N2YO · Heavens-Above · Gunter

§ Orbital elements

Epoch: 2026-09-19T14:40:05.773152Z

Period
94.27 min
Inclination
43.0033°
Eccentricity
0.0001211
Mean motion
15.27572575 rev/d
Perigee alt
482.2 km
Apogee alt
483.9 km
Semi-major
6,861.2 km
B*
-1.4931e-5
RAAN
15.5183°
Arg perigee
274.3501°
Mean anomaly
85.7213°
Rev number
17,677

§ Raw data

STARLINK-63601 57235U 23094T   26262.61117793 -.00000673  00000+0 -14931-4 0  99922 57235  43.0033  15.5183 0001211 274.3501  85.7213 15.27572575176777

JSON: /api/v1/satellites/57235 · /tle

For live sub-satellite position, see the globe view (requires WebGL).

§ Visibility from observer

Set your observer location to see the next 7 days of passes ≥ 10°. The values pass through the URL so the page stays shareable.

No JS? Fill the form by hand. The geolocation button needs JavaScript.